• In Österreich
  • Länderverzeichnis
  • Für 7 Tage
  • Wassertemperatur
  • Satellitenkarten
  • Wetterkarte
  • News
  • Widgets
  • user-avatar
    Anmelden

    Stündliche Wetter Escaldes-Engordany

    Heute, 23 Februar, Freitag

    Zeit Temperatur Niederschläge Wind Luftdruck Luftfeuchtigkeit
    00:00 -9°C° 0 mm 2 m/S 628 mmHg 78%
    01:00 -9°C° 0 mm 2 m/S 628 mmHg 78%
    02:00 -9°C° 0 mm 2 m/S 628 mmHg 77%
    03:00 -9°C° 0 mm 2 m/S 628 mmHg 77%
    04:00 -9°C° 0 mm 2 m/S 627 mmHg 76%
    05:00 -10°C° 0 mm 2 m/S 627 mmHg 76%
    06:00 -10°C° 0 mm 2 m/S 627 mmHg 76%
    07:00 -8°C° 0 mm 2 m/S 628 mmHg 70%
    08:00 -6°C° 0 mm 2 m/S 628 mmHg 65%
    09:00 -5°C° 0 mm 2 m/S 629 mmHg 59%
    10:00 -3°C° 0 mm 2 m/S 630 mmHg 56%
    11:00 0°C° 0 mm 1 m/S 630 mmHg 53%
    12:00 +1°C° 0 mm 1 m/S 630 mmHg 50%
    13:00 +1°C° 0 mm 1 m/S 630 mmHg 52%
    14:00 +1°C° 0 mm 1 m/S 630 mmHg 54%
    15:00 +1°C° 0 mm 1 m/S 630 mmHg 55%
    16:00 -1°C° 0 mm 1 m/S 629 mmHg 64%
    17:00 -4°C° 0 mm 0 m/S 629 mmHg 72%
    18:00 -5°C° 0 mm 0 m/S 628 mmHg 81%
    19:00 -6°C° 0 mm 0 m/S 628 mmHg 82%
    20:00 -6°C° 0 mm 0 m/S 628 mmHg 82%
    21:00 -7°C° 0 mm 1 m/S 628 mmHg 83%
    22:00 -7°C° 0 mm 1 m/S 628 mmHg 82%
    23:00 -7°C° 0 mm 0 m/S 628 mmHg 81%

    Morgen, 24 Februar, Samstag

    Zeit Temperatur Niederschläge Wind Luftdruck Luftfeuchtigkeit
    00:00 -7°C° 0 mm 0 m/S 628 mmHg 80%
    01:00 -7°C° 0 mm 1 m/S 628 mmHg 79%
    02:00 -7°C° 0 mm 1 m/S 628 mmHg 78%
    03:00 -7°C° 0 mm 1 m/S 628 mmHg 76%
    04:00 -7°C° 0 mm 1 m/S 628 mmHg 75%
    05:00 -7°C° 0 mm 1 m/S 628 mmHg 73%
    06:00 -7°C° 0 mm 1 m/S 628 mmHg 72%
    07:00 -4°C° 0 mm 1 m/S 629 mmHg 66%
    08:00 -3°C° 0 mm 0 m/S 630 mmHg 60%
    09:00 -1°C° 0 mm 0 m/S 631 mmHg 54%
    10:00 +1°C° 0 mm 0 m/S 631 mmHg 52%
    11:00 +3°C° 0 mm 1 m/S 632 mmHg 49%
    12:00 +4°C° 0 mm 1 m/S 632 mmHg 47%
    13:00 +4°C° 0 mm 1 m/S 632 mmHg 50%
    14:00 +3°C° 0 mm 1 m/S 631 mmHg 53%
    15:00 +3°C° 0 mm 1 m/S 631 mmHg 56%
    16:00 +2°C° 0,1 mm 1 m/S 631 mmHg 63%
    17:00 0°C° 0,1 mm 1 m/S 631 mmHg 71%
    18:00 -2°C° 0,1 mm 0 m/S 630 mmHg 78%
    19:00 -2°C° 0,1 mm 1 m/S 631 mmHg 79%
    20:00 -2°C° 0,1 mm 1 m/S 631 mmHg 81%
    21:00 -2°C° 0,1 mm 1 m/S 631 mmHg 82%
    22:00 -3°C° 0 mm 1 m/S 631 mmHg 81%
    23:00 -3°C° 0 mm 1 m/S 631 mmHg 80%

    übermorgen, 25 Februar, Sonntag

    Zeit Temperatur Niederschläge Wind Luftdruck Luftfeuchtigkeit
    00:00 -3°C° 0 mm 1 m/S 631 mmHg 79%
    01:00 -3°C° 0 mm 1 m/S 631 mmHg 77%
    02:00 -3°C° 0 mm 1 m/S 631 mmHg 76%
    03:00 -4°C° 0 mm 1 m/S 631 mmHg 75%
    04:00 -4°C° 0 mm 1 m/S 631 mmHg 74%
    05:00 -4°C° 0 mm 1 m/S 631 mmHg 73%
    06:00 -4°C° 0 mm 1 m/S 631 mmHg 73%
    07:00 -2°C° 0 mm 1 m/S 631 mmHg 68%
    08:00 0°C° 0 mm 1 m/S 632 mmHg 63%
    09:00 +2°C° 0 mm 1 m/S 633 mmHg 58%
    10:00 +3°C° 0 mm 1 m/S 633 mmHg 58%
    11:00 +4°C° 0 mm 1 m/S 634 mmHg 57%
    12:00 +5°C° 0 mm 1 m/S 634 mmHg 57%
    13:00 +4°C° 0 mm 2 m/S 634 mmHg 58%
    14:00 +4°C° 0 mm 2 m/S 633 mmHg 60%
    15:00 +4°C° 0 mm 2 m/S 633 mmHg 61%
    16:00 +2°C° 0 mm 2 m/S 632 mmHg 69%
    17:00 -1°C° 0 mm 2 m/S 632 mmHg 76%
    18:00 -1°C° 0 mm 1 m/S 631 mmHg 84%
    19:00 -3°C° 0 mm 2 m/S 631 mmHg 85%
    20:00 -4°C° 0 mm 2 m/S 631 mmHg 85%
    21:00 -4°C° 0 mm 2 m/S 632 mmHg 86%
    22:00 -5°C° 0 mm 2 m/S 631 mmHg 83%
    23:00 -5°C° 0 mm 2 m/S 631 mmHg 79%

    26 Februar, Montag

    Zeit Temperatur Niederschläge Wind Luftdruck Luftfeuchtigkeit
    00:00 -5°C° 0 mm 2 m/S 631 mmHg 76%
    01:00 -5°C° 0 mm 2 m/S 631 mmHg 75%
    02:00 -6°C° 0 mm 2 m/S 631 mmHg 74%
    03:00 -6°C° 0 mm 2 m/S 631 mmHg 74%
    04:00 -6°C° 0 mm 2 m/S 631 mmHg 73%
    05:00 -6°C° 0 mm 2 m/S 630 mmHg 73%
    06:00 -6°C° 0 mm 2 m/S 630 mmHg 72%
    07:00 -5°C° 0 mm 2 m/S 631 mmHg 68%
    08:00 -3°C° 0 mm 2 m/S 632 mmHg 64%
    09:00 +1°C° 0 mm 1 m/S 632 mmHg 60%
    10:00 +1°C° 0 mm 2 m/S 633 mmHg 58%
    11:00 +2°C° 0 mm 2 m/S 633 mmHg 56%
    12:00 +3°C° 0 mm 2 m/S 633 mmHg 54%
    13:00 +2°C° 0 mm 2 m/S 632 mmHg 56%
    14:00 +2°C° 0 mm 2 m/S 632 mmHg 58%
    15:00 +1°C° 0 mm 2 m/S 631 mmHg 61%
    16:00 -1°C° 0,1 mm 2 m/S 631 mmHg 67%
    17:00 -3°C° 0,1 mm 2 m/S 630 mmHg 74%
    18:00 -5°C° 0,1 mm 2 m/S 630 mmHg 81%
    19:00 -6°C° 0,1 mm 2 m/S 630 mmHg 80%
    20:00 -4°C° 0,1 mm 1 m/S 630 mmHg 80%
    21:00 -6°C° 0,1 mm 1 m/S 630 mmHg 79%
    22:00 -6°C° 0,2 mm 1 m/S 630 mmHg 78%
    23:00 -6°C° 0,2 mm 1 m/S 629 mmHg 77%

    27 Februar, Dienstag

    Zeit Temperatur Niederschläge Wind Luftdruck Luftfeuchtigkeit
    00:00 -6°C° 0,2 mm 1 m/S 629 mmHg 76%
    01:00 -6°C° 0,2 mm 1 m/S 629 mmHg 76%
    02:00 -6°C° 0,2 mm 1 m/S 629 mmHg 76%
    03:00 -7°C° 0,2 mm 1 m/S 628 mmHg 75%
    04:00 -7°C° 0,1 mm 1 m/S 628 mmHg 75%
    05:00 -7°C° 0,1 mm 1 m/S 628 mmHg 74%
    06:00 -7°C° 0,1 mm 1 m/S 628 mmHg 74%
    07:00 -7°C° 0,1 mm 1 m/S 629 mmHg 70%
    08:00 -6°C° 0,1 mm 1 m/S 629 mmHg 66%
    09:00 -4°C° 0,1 mm 1 m/S 630 mmHg 62%
    10:00 -3°C° 0,1 mm 1 m/S 630 mmHg 62%
    11:00 -2°C° 0,1 mm 1 m/S 630 mmHg 61%
    12:00 -4°C° 0,1 mm 2 m/S 630 mmHg 60%
    13:00 -4°C° 0,2 mm 2 m/S 630 mmHg 61%
    14:00 -4°C° 0,2 mm 2 m/S 630 mmHg 62%
    15:00 -4°C° 0,2 mm 2 m/S 630 mmHg 63%
    16:00 -3°C° 0,2 mm 1 m/S 629 mmHg 67%
    17:00 -4°C° 0,2 mm 1 m/S 629 mmHg 71%
    18:00 -6°C° 0,2 mm 1 m/S 629 mmHg 75%
    19:00 -6°C° 0,1 mm 1 m/S 629 mmHg 76%
    20:00 -6°C° 0,1 mm 1 m/S 629 mmHg 78%
    21:00 -6°C° 0,1 mm 1 m/S 629 mmHg 79%
    22:00 -7°C° 0 mm 1 m/S 629 mmHg 79%
    23:00 -7°C° 0 mm 1 m/S 629 mmHg 79%

    28 Februar, Mittwoch

    Zeit Temperatur Niederschläge Wind Luftdruck Luftfeuchtigkeit
    00:00 -7°C° 0 mm 1 m/S 629 mmHg 79%
    01:00 -7°C° 0,1 mm 1 m/S 629 mmHg 79%
    02:00 -7°C° 0,1 mm 1 m/S 628 mmHg 79%
    03:00 -7°C° 0,1 mm 1 m/S 628 mmHg 78%
    04:00 -7°C° 0,2 mm 1 m/S 628 mmHg 80%
    05:00 -6°C° 0,2 mm 1 m/S 628 mmHg 81%
    06:00 -6°C° 0,2 mm 1 m/S 627 mmHg 82%
    07:00 -6°C° 0,2 mm 2 m/S 628 mmHg 82%
    08:00 -5°C° 0,2 mm 2 m/S 628 mmHg 81%
    09:00 -5°C° 0,2 mm 3 m/S 628 mmHg 80%
    10:00 -5°C° 0,4 mm 3 m/S 627 mmHg 80%
    11:00 -4°C° 0,4 mm 3 m/S 627 mmHg 80%
    12:00 -3°C° 0,4 mm 4 m/S 627 mmHg 80%
    13:00 -3°C° 0,8 mm 4 m/S 626 mmHg 82%
    14:00 -3°C° 0,8 mm 4 m/S 625 mmHg 84%
    15:00 -3°C° 0,8 mm 4 m/S 624 mmHg 85%
    16:00 -3°C° 0,7 mm 4 m/S 623 mmHg 87%
    17:00 -3°C° 0,7 mm 4 m/S 622 mmHg 89%
    18:00 -3°C° 0,7 mm 4 m/S 621 mmHg 91%
    19:00 -2°C° 0,9 mm 3 m/S 621 mmHg 91%
    20:00 -2°C° 0,9 mm 3 m/S 621 mmHg 92%
    21:00 -2°C° 0,9 mm 3 m/S 620 mmHg 92%
    22:00 -1°C° 0,6 mm 3 m/S 620 mmHg 93%
    23:00 -1°C° 0,6 mm 3 m/S 620 mmHg 93%
    Mehr zeigen